COSMOS 2251 DEB, 33936

Orbit data source: Space-Track

COSMOS 2251 DEB, 33936 is space debris in LEO originally from a launch on Wed, 16 Jun 1993 UTC launched from the Plesetsk Missile And Space Complex (PKMTR). The debris from Iridium 33, an American commercial communications satellite, has been tracked extensively since its accidental collision with the defunct Russian satellite Cosmos 2251 in 2009. This event, occurring at high speed in low Earth orbit (LEO), generated thousands of pieces of space debris, significantly increasing the risk of further collisions. The Iridium 33 debris cloud has impacted space traffic management and orbital debris mitigation strategies, making it a subject of ongoing study in space situational awareness.

Loading next visibility...
Identifier
33936, 1993-036ER
Orbit
LEO
Country
Flag of CISCIS
Related business
Manufacturer
Unknown
Mission
Spacecraft
Bus & Motor
Unknown
Mass
Unknown
Launch date (UTC)
Icon of a cake. It is the launch day of the satellite!1993-06-16 (33 years ago)
Launch vehicle
Unknown
Launch site
Plesetsk Missile And Space Complex (PKMTR)
Object type
Payload
Rocket body
Debris
Shape & HBR
Unknown shape, 0.2 m
Radar Cross Section
Medium (>0.1 m² and <1 m²)

Expand to show TLE details & history
Last TLE update: 10 hours ago

TLE from 10 hours ago
0 COSMOS 2251 DEB
1 33936U 93036ER  26167.00236448  .00002048  00000-0  41727-3 0  9992
2 33936  74.0176  43.0379 0028103 149.5883 210.6921 14.61430243915957
Epoch: 2026-06-16T00:03Z
TLE epoch observation values (Epoch: 2026-06-16T00:03:24.291Z)
Latitude
Longitude
137.90604°
Altitude
708.296 km
Speed
7.493 km/s
True Right ascension
02h 52m 09s
True Declination
0° 00' 00"
Sunlit
Object was in daylight at epoch
Visualization orbit readout
Latitude
Unknown
Longitude
Unknown
Altitude
Unknown
Speed
Unknown
Apparent Right ascension
Unknown
Apparent Declination
Unknown
Sunlit
N/A
Visualization observer readout
Local Sidereal Time
20:17:49
Azimuth
Unknown
Elevation
Unknown
Doppler factor
Unknown
Orbital elements
Apogee altitude
706.01 km
Perigee altitude
666.304 km
Semi-major axis
7,064.294 km
Eccentricity
0.00281
Inclination
74.0176°
RAAN
43.0379°
Arg. of periapsis
149.5883°
True anomaly
210.52822°
Mean anomaly
210.6921°
Eccentric anomaly
210.61011°
Mean motion
3.65544 °/min
Orbital period
98.48 mins
BSTAR
0.00041727
Loading maneuver chart data...
Computing Atmospheric mass density...
Loading historical data...
Loading historical data...
Loading historical data...
Loading historical data...
Loading historical data...
Loading historical data...
Loading historical data...

Documentation

Showing up to 5 results
|